Location: St. Louis
(38.6270°N, 90.1994°W)
Time: 03:59:58
(UTC-05:00)

RS-15 - Pass Details

Date: 05 February 2022
Orbit: 1881 x 2163 km, 64.8° (Epoch: 20 May)

Event Time Altitude Azimuth Distance (km) Brightness Sun altitude
Rises 19:20:23 0° 278° (W) 5,511 11.8 -22.4°
Reaches altitude 10° 19:25:04 10° 293° (WNW) 4,558 10.8 -23.3°
Maximum altitude 19:33:44 22° 341° (NNW) 3,726 9.6 -25.0°
Drops below altitude 10° 19:42:41 10° 28° (NNE) 4,680 9.7 -26.7°
Enters shadow 19:44:41 - 35° (NE) 5,067 9.9 -27.1°
